[[{"header":{"parameterUnit":"m.s-1","parameterCategory":1,"la1":30.2991,"la2":30.254,"lo1":-89.0895,"lo2":-89.0444,"dy":0.0017,"dx":0.0017,"nx":28,"ny":28,"refTime":"2024-02-24T09:00:00:Z","depth":0,"parameterNumber":2,"parameterNumberName":"U-component_of_WINDS"},"data":[0,0,0,0,0,0,0,0,0,0,0,0,0,0,0,0,0,0,0,0,0,0,0,0,0,0,0,0,0,0,0,0,0,0,0,0,0,0,0,0,0,0,0,0,0,0,0,0,0,0,0,0,0,0,0,0,0,0,3.223,3.223,0,3.2298,3.2298,3.2299,3.2273,3.2271,3.227,3.2268,3.234,3.2343,3.2346,0,0,0,0,0,0,0,0,0,0,0,0,0,3.208,3.2083,3.223,3.2231,3.2231,3.2297,3.2298,3.2299,3.2273,3.2271,3.227,3.2268,3.2339,3.2343,3.2347,0,0,0,0,0,0,0,0,0,0,0,0,0,3.2146,3.2084,3.223,3.2226,3.2227,3.2297,3.2298,3.23,3.2274,3.2271,3.2269,3.2267,3.2337,3.2342,3.2347,3.2425,0,0,3.2363,3.2365,0,0,0,0,0,0,0,0,3.2143,3.2152,3.2226,3.2227,3.2227,3.2274,3.2272,3.2342,3.2274,3.2256,3.2268,3.2266,3.232,3.2326,3.2344,3.2429,3.2432,3.2363,3.2366,3.2368,3.237,0,0,0,0,0,0,0,3.2138,3.2149,3.2257,3.2227,3.2228,3.2222,3.2229,3.2285,3.23,3.2257,3.2256,3.2264,3.232,3.2339,3.2346,3.2433,3.2363,3.2367,3.237,3.2372,3.2587,3.259,0,0,0,0,0,0,3.2133,3.2145,3.2254,3.2259,3.2178,3.2227,3.2235,3.2262,3.23,3.2303,3.2266,3.2262,3.2332,3.234,3.2348,3.2444,3.2368,3.2373,3.2376,3.2584,3.2588,3.2591,0,0,0,0,0,0,3.213,3.2143,3.2252,3.2202,3.2215,3.2232,3.2263,3.2264,3.2284,3.2306,3.2309,3.2283,3.233,3.2341,3.2407,3.2446,3.2375,3.238,3.2581,3.2585,3.2589,3.2635,0,0,0,0,0,0,3.2126,3.2142,3.2171,3.2202,3.2218,3.2308,3.2265,3.2267,3.2292,3.2289,3.2323,3.2326,3.2329,3.2399,3.2412,3.2451,3.2384,3.2578,3.2583,3.2588,3.263,3.264,3.2648,0,0,0,0,0,3.2121,3.2181,3.2173,3.2186,3.2254,3.2311,3.232,3.2321,3.2295,3.2326,3.234,3.2325,3.2439,3.2406,3.242,3.2462,3.2575,3.2582,3.2588,3.2626,3.2638,3.2648,0,0,0,0,0,0,3.2155,3.2185,3.2176,3.2249,3.2277,3.2306,3.2344,3.2334,3.2371,3.2366,3.2367,3.2375,3.2443,3.2459,3.2422,3.2541,3.2504,3.2513,3.2528,3.254,3.2549,3.2544,3.2388,0,0,0,0,0,3.217,3.2213,3.2238,3.2299,3.2314,3.2327,3.2351,3.235,3.238,3.2392,3.2412,3.2442,3.2485,3.2513,3.2553,3.2632,3.264,3.2668,3.2677,3.2684,3.2692,3.2737,3.275,3.261,3.261,3.261,0,0,3.2204,3.2226,3.2253,3.2307,3.2329,3.2374,3.2337,3.2386,3.242,3.24,3.2463,3.2479,3.2513,3.2586,3.2619,3.2601,3.2733,3.2692,3.2698,3.2702,3.2745,3.2758,3.277,3.2615,3.2614,3.2613,0,0,3.2288,3.2308,3.2363,3.2386,3.2419,3.2428,3.2441,3.2472,3.2481,3.2545,3.2531,3.2572,3.2645,3.2671,3.2693,3.2788,3.2777,3.2802,3.285,3.2894,3.2905,3.2915,3.295,3.2963,3.2809,3.281,3.281,0,3.2325,3.2392,3.2392,3.2442,3.2467,3.2451,3.2507,3.253,3.2575,3.2594,3.2573,3.2666,3.2687,3.2767,3.279,3.2808,3.2825,3.2798,3.2903,3.2913,3.2922,3.2956,3.2969,3.2812,3.2812,3.2812,3.2812,0,3.2437,3.2484,3.2524,3.2568,3.2597,3.265,3.266,3.2689,3.2686,3.2697,3.2763,3.2789,3.2835,3.2854,3.2851,3.2934,3.2922,3.2902,3.2865,3.2938,3.2971,3.2983,3.2817,3.2816,3.2815,3.2814,0,0,3.2544,3.2589,3.2604,3.2624,3.2661,3.2698,3.2751,3.2795,3.2822,3.2854,3.29,3.2963,3.2945,3.2971,3.2971,3.3009,3.3085,3.2985,3.2986,3.3004,3.318,3.3196,3.3211,3.3077,3.308,3.3082,3.3178,0,3.2632,3.2725,3.2727,3.2812,3.2856,3.2842,3.2888,3.2917,3.2929,3.2968,3.2982,3.3027,3.3,3.3015,3.3052,3.3068,3.3121,3.3061,3.3121,3.3123,3.3114,3.3227,3.3243,3.3333,3.319,3.3192,3.3194,0,3.2747,3.2784,3.2873,3.2905,3.2923,3.2965,3.3007,3.3045,3.3077,3.3084,3.3113,3.3108,3.3163,3.3124,3.3202,3.3161,3.3186,3.3198,3.3201,3.3208,3.3164,3.3238,3.3361,3.3375,3.3213,3.3212,3.321,0,3.2819,3.289,3.2953,3.2971,3.3009,3.3039,3.3056,3.3086,3.3114,3.3151,3.3169,3.3213,3.3237,3.3271,3.3279,3.3249,3.3357,3.3318,3.3365,3.3365,3.3389,3.3388,3.3519,3.3403,3.3403,3.3403,3.3402,0,3.2918,3.2973,3.2985,3.3024,3.3087,3.3089,3.3152,3.3167,3.3194,3.3237,3.3227,3.3268,3.3275,3.3317,3.3323,3.3388,3.3398,3.3406,3.3407,3.3408,3.3407,3.3425,3.3419,3.3406,3.3405,3.3405,3.3404,0,3.3008,3.3018,3.3086,3.3117,3.3126,3.3171,3.3198,3.3236,3.3247,3.3302,3.3315,3.3333,3.3382,3.3393,3.3452,3.3456,3.3533,3.3528,3.3522,3.3522,3.3569,3.3565,3.3718,3.3739,3.3608,3.3609,3.361,0,3.3071,3.3113,3.3149,3.3177,3.3196,3.324,3.3269,3.3273,3.3303,3.3344,3.3378,3.3426,3.3466,3.3546,3.3565,3.3611,3.3607,3.3657,3.3614,3.3613,3.361,3.3608,3.3613,3.3666,3.3667,3.3668,3.3669,0,3.3182,3.3185,3.3226,3.3269,3.3303,3.3337,3.3369,3.3393,3.3402,3.3436,3.3487,3.3517,3.3578,3.3627,3.3673,3.3692,3.3683,3.3683,3.3696,3.3698,3.3694,3.3698,3.3546,3.3679,3.3678,3.3678,3.3677,3.3677,3.3262,3.33,3.3331,3.3377,3.3402,3.3433,3.3471,3.3487,3.3529,3.3578,3.3578,3.3634,3.3667,3.3728,3.375,3.3795,3.3779,3.3799,3.3804,3.3809,3.3814,3.3686,3.3803,3.3803,3.3803,3.3802,3.3802,0,3.3374,3.3394,3.3436,3.3482,3.3518,3.3506,3.3542,3.3573,3.3622,3.3654,3.3693,3.3752,3.38,3.3823,3.3871,3.3902,3.3899,3.3915,3.3913,3.3918,3.3824,3.3808,3.3916,3.3916,3.3916,3.3916,3.3916,3.3916,3.3437,3.3501,3.3508,3.3585,3.3604,3.3658,3.368,3.3709,3.3734,3.3801,3.384,3.3855,3.3884,3.3933,3.3978,3.3983,3.4002,3.402,3.4024,3.3936,3.3924,3.3913,3.3899,3.4023,3.4024,3.4114,3.4115,3.4115]},{"header":{"parameterUnit":"m.s-1","parameterCategory":1,"la1":30.2991,"la2":30.254,"lo1":-89.0895,"lo2":-89.0444,"dy":0.0017,"dx":0.0017,"nx":28,"ny":28,"refTime":"2024-02-24T09:00:00:Z","depth":0,"parameterNumber":3,"parameterNumberName":"V-component_of_WINDS"},"data":[0,0,0,0,0,0,0,0,0,0,0,0,0,0,0,0,0,0,0,0,0,0,0,0,0,0,0,0,0,0,0,0,0,0,0,0,0,0,0,0,0,0,0,0,0,0,0,0,0,0,0,0,0,0,0,0,0,0,-2.2365,-2.2365,0,-2.2381,-2.2381,-2.2381,-2.2412,-2.2413,-2.2414,-2.2414,-2.2429,-2.2428,-2.2428,0,0,0,0,0,0,0,0,0,0,0,0,0,-2.2361,-2.236,-2.2365,-2.2365,-2.2366,-2.2381,-2.2381,-2.2381,-2.2412,-2.2413,-2.2414,-2.2415,-2.2429,-2.2428,-2.2428,0,0,0,0,0,0,0,0,0,0,0,0,0,-2.2368,-2.236,-2.2365,-2.2383,-2.2385,-2.2381,-2.2381,-2.2381,-2.2412,-2.2413,-2.2414,-2.2415,-2.2429,-2.2428,-2.2428,-2.2408,0,0,-2.2427,-2.2427,0,0,0,0,0,0,0,0,-2.2367,-2.2368,-2.238,-2.2382,-2.2384,-2.2396,-2.2385,-2.239,-2.2412,-2.2402,-2.2414,-2.2415,-2.2417,-2.2418,-2.2418,-2.2408,-2.2409,-2.2427,-2.2427,-2.2427,-2.2427,0,0,0,0,0,0,0,-2.2367,-2.2368,-2.2371,-2.238,-2.2382,-2.239,-2.2392,-2.2386,-2.2404,-2.2403,-2.2405,-2.2406,-2.2418,-2.2419,-2.2419,-2.2409,-2.2427,-2.2427,-2.2427,-2.2427,-2.2382,-2.2381,0,0,0,0,0,0,-2.2364,-2.2367,-2.2371,-2.2372,-2.2378,-2.2389,-2.2391,-2.2391,-2.2404,-2.2407,-2.2406,-2.2408,-2.2419,-2.2419,-2.242,-2.2395,-2.2427,-2.2427,-2.2426,-2.2383,-2.2381,-2.238,0,0,0,0,0,0,-2.2364,-2.2364,-2.237,-2.237,-2.2371,-2.2388,-2.2387,-2.2391,-2.2391,-2.2406,-2.2409,-2.2403,-2.2419,-2.242,-2.241,-2.2396,-2.2427,-2.2426,-2.2384,-2.2382,-2.2381,-2.2347,0,0,0,0,0,0,-2.2364,-2.2364,-2.2357,-2.237,-2.2371,-2.2361,-2.2387,-2.239,-2.2391,-2.2394,-2.2405,-2.2407,-2.242,-2.241,-2.241,-2.2396,-2.2426,-2.2385,-2.2383,-2.2381,-2.2349,-2.2344,-2.234,0,0,0,0,0,-2.2363,-2.2346,-2.2356,-2.2356,-2.2363,-2.236,-2.2361,-2.2377,-2.239,-2.2382,-2.2392,-2.2407,-2.2398,-2.2409,-2.2409,-2.2395,-2.2386,-2.2384,-2.2381,-2.2351,-2.2345,-2.234,0,0,0,0,0,0,-2.2331,-2.2348,-2.2359,-2.2346,-2.2351,-2.2365,-2.2356,-2.237,-2.2371,-2.2374,-2.2393,-2.2395,-2.2382,-2.2388,-2.24,-2.2375,-2.2394,-2.2392,-2.2372,-2.2366,-2.2362,-2.236,-2.2426,0,0,0,0,0,-2.2322,-2.2319,-2.2335,-2.2322,-2.2324,-2.2339,-2.2339,-2.2351,-2.2357,-2.2359,-2.2368,-2.2372,-2.2371,-2.2369,-2.2368,-2.2351,-2.2353,-2.2341,-2.2336,-2.2333,-2.233,-2.232,-2.2314,-2.2373,-2.2373,-2.2373,0,0,-2.2304,-2.2313,-2.231,-2.2315,-2.2321,-2.2316,-2.2341,-2.2336,-2.2333,-2.2358,-2.2349,-2.2356,-2.2362,-2.2348,-2.2342,-2.2352,-2.2314,-2.233,-2.2327,-2.2326,-2.2317,-2.2311,-2.2306,-2.2371,-2.2372,-2.2372,0,0,-2.2269,-2.2276,-2.2265,-2.227,-2.2278,-2.2289,-2.2287,-2.2298,-2.2304,-2.2295,-2.2314,-2.231,-2.2307,-2.2311,-2.2312,-2.2278,-2.2291,-2.2277,-2.2253,-2.2242,-2.2238,-2.2234,-2.222,-2.2215,-2.2274,-2.2274,-2.2274,0,-2.2245,-2.224,-2.2258,-2.2251,-2.2252,-2.2276,-2.2265,-2.2268,-2.2276,-2.2275,-2.2287,-2.2283,-2.2289,-2.2275,-2.2267,-2.2268,-2.2264,-2.2275,-2.2237,-2.2233,-2.223,-2.2217,-2.2212,-2.2272,-2.2273,-2.2273,-2.2273,0,-2.221,-2.2206,-2.2196,-2.2203,-2.2203,-2.2194,-2.221,-2.2208,-2.222,-2.2229,-2.2219,-2.2227,-2.2228,-2.2226,-2.2238,-2.2214,-2.222,-2.2234,-2.2253,-2.2222,-2.221,-2.2205,-2.227,-2.227,-2.2271,-2.2271,0,0,-2.2154,-2.217,-2.2166,-2.2169,-2.218,-2.2177,-2.2169,-2.217,-2.2167,-2.2171,-2.2164,-2.2161,-2.2174,-2.2175,-2.2187,-2.2179,-2.2149,-2.2194,-2.2194,-2.2184,-2.2122,-2.211,-2.2104,-2.2159,-2.2158,-2.2157,-2.2121,0,-2.212,-2.2107,-2.2123,-2.2106,-2.2102,-2.2124,-2.2117,-2.2122,-2.2131,-2.2128,-2.2137,-2.2134,-2.2152,-2.2153,-2.2145,-2.2154,-2.2137,-2.2157,-2.2151,-2.215,-2.2147,-2.2098,-2.2086,-2.2051,-2.2116,-2.2116,-2.2115,0,-2.2078,-2.208,-2.2063,-2.2074,-2.2073,-2.2066,-2.2068,-2.2066,-2.2072,-2.2079,-2.208,-2.2094,-2.2086,-2.2106,-2.2094,-2.2108,-2.2106,-2.211,-2.2109,-2.2108,-2.213,-2.2094,-2.2041,-2.2035,-2.2108,-2.2109,-2.2109,0,-2.2037,-2.2036,-2.2026,-2.2027,-2.204,-2.2035,-2.204,-2.2047,-2.2046,-2.2048,-2.2047,-2.2048,-2.2048,-2.2048,-2.2061,-2.2075,-2.2047,-2.2069,-2.2051,-2.2051,-2.2043,-2.2043,-2.1987,-2.2045,-2.2045,-2.2045,-2.2045,0,-2.1997,-2.1985,-2.2007,-2.2,-2.1988,-2.2006,-2.1993,-2.2,-2.2006,-2.2,-2.202,-2.2014,-2.2033,-2.2029,-2.204,-2.2028,-2.2028,-2.2032,-2.2035,-2.203,-2.2029,-2.2028,-2.203,-2.2044,-2.2044,-2.2044,-2.2044,0,-2.1948,-2.1963,-2.1952,-2.1965,-2.1968,-2.1958,-2.1969,-2.1963,-2.1973,-2.1965,-2.1965,-2.198,-2.1976,-2.199,-2.1989,-2.1996,-2.1977,-2.1985,-2.1975,-2.1977,-2.1958,-2.1959,-2.1898,-2.189,-2.1954,-2.1953,-2.1953,0,-2.1921,-2.1912,-2.1924,-2.1922,-2.1926,-2.1923,-2.1922,-2.194,-2.1938,-2.1944,-2.1937,-2.1935,-2.1934,-2.1927,-2.1937,-2.1936,-2.1942,-2.1921,-2.1942,-2.1937,-2.194,-2.194,-2.1938,-2.1916,-2.1915,-2.1915,-2.1914,0,-2.187,-2.1877,-2.1876,-2.1877,-2.1876,-2.1878,-2.1881,-2.1878,-2.1897,-2.1894,-2.189,-2.189,-2.1888,-2.1885,-2.1886,-2.1891,-2.1905,-2.1908,-2.1903,-2.1897,-2.1891,-2.1892,-2.1961,-2.1909,-2.1909,-2.191,-2.191,-2.191,-2.183,-2.1823,-2.183,-2.1828,-2.1832,-2.1834,-2.1829,-2.1838,-2.1835,-2.1836,-2.1846,-2.184,-2.1846,-2.1849,-2.1851,-2.1846,-2.1856,-2.185,-2.1848,-2.1846,-2.1842,-2.1893,-2.1847,-2.1847,-2.1847,-2.1847,-2.1847,0,-2.1779,-2.1784,-2.1782,-2.1786,-2.1784,-2.1799,-2.1802,-2.1799,-2.1794,-2.1798,-2.1797,-2.1792,-2.179,-2.18,-2.1798,-2.1792,-2.1798,-2.1791,-2.179,-2.1791,-2.1834,-2.1838,-2.1785,-2.1785,-2.1785,-2.1785,-2.1786,-2.1786,-2.1752,-2.174,-2.1749,-2.1739,-2.1745,-2.174,-2.174,-2.1742,-2.1745,-2.1739,-2.1737,-2.1744,-2.175,-2.1749,-2.1747,-2.175,-2.1747,-2.1737,-2.1742,-2.1782,-2.1788,-2.1794,-2.1797,-2.1737,-2.1737,-2.1699,-2.1699,-2.1698]}]]